Location: Maddington
(51.2000°N, 1.9167°W)
Time: 15:31:13
(UTC+00:00)

NOSS 2-2 (E) - Pass Details

Date: 21 January 2021
Orbit: 462 x 1744 km, 63.3° (Epoch: 03 March)

Event Time Altitude Azimuth Distance (km) Brightness Sun altitude
Rises 19:21:57 0° 314° (NW) 2,889 7.6 -25.0°
Reaches altitude 10° 19:24:09 10° 324° (NW) 2,117 6.7 -25.3°
Enters shadow 19:27:39 32° 9° (N) 1,319 5.1 -25.9°
